{"data":{"norad_id":59543,"intl_designator":"2024-074K","name":"STARLINK-31574","alt_names":[],"object_type":"PAYLOAD","status":"ACTIVE","operator":null,"country":"US","launch_date":"2024-04-18","launch_site_code":"AFETR","launch_vehicle":null,"mission":null,"orbit_class":"UNKNOWN","rcs_meters":null,"size_class":null,"mass_kg":null,"dimensions":null,"purposes":["comms"],"wikipedia_slug":null,"has_3d_model":false,"image_url":null,"decayed_at":null,"tle_current":{"epoch":"2026-05-25T01:35:36.661056Z","epoch_age_seconds":76187,"freshness":"FRESH","line1":"1 59543U 24074K   26145.06639654 -.00000755  00000+0 -17930-4 0  9992","line2":"2 59543  43.0003 272.3199 0000421 300.9585  59.1225 15.27570184117696","mean_motion":15.27570184,"eccentricity":4.21e-5,"inclination_deg":43.0003,"raan_deg":272.3199,"arg_perigee_deg":300.9585,"mean_anomaly_deg":59.1225,"bstar":-1.793e-5,"rev_number":11769,"period_min":94.267354461535,"perigee_km":482.78963166026,"apogee_km":483.36734600442,"semimajor_km":6861.2154888323,"source":"CELESTRAK","updated_at":"2026-05-25T13:38:18.980471Z"}}}